Location: Gälforsberget
(66.6500°N, 22.4167°E)
Time: 07:33:34
(UTC+00:00)

Cosmos 2151 - Pass Details

Date: 11 April 2026
Orbit: 558 x 574 km, 82.5° (Epoch: 12 May)

Event Time Altitude Azimuth Distance (km) Brightness Sun altitude
Rises 23:36:21 0° 341° (NNW) 2,801 7.4 -13.8°
Reaches altitude 10° 23:38:33 10° 339° (NNW) 1,900 6.4 -13.8°
Maximum altitude 23:42:43 71° 257° (WSW) 617 2.9 -13.6°
Enters shadow 23:45:32 20° 176° (S) 1,356 4.3 -13.5°
